Regional Weather Roundup
Issued by NWS Charleston, SC

Current Version | Previous Version | Text Only | Print | Product List | Glossary Off
Versions: 1 2 3 4 5 6 7 8 9 10 11 12 13 14 15 16 17 18 19 20 21 22 23 24 25 26 27 28 29 30 31 32 33 34 35 36 37 38 39 40 41 42 43 44 45 46 47 48 49 50
000 ASUS42 KCHS 280225 RWRCHS REGIONAL WEATHER ROUNDUP NATIONAL WEATHER SERVICE CHARLESTON SC 900 PM EST SAT DEC 27 2014 NOTE: "FAIR" INDICATES FEW OR NO CLOUDS BELOW 12,000 FEET WITH NO SIGNIFICANT WEATHER AND/OR OBSTRUCTIONS TO VISIBILITY. NOT ALL STATIONS ARE QUALITY CONTROLLED BY THE NATIONAL WEATHER SERVICE. USE DATA WITH CAUTION...ESPECIALLY DEWPOINT OBSERVATIONS. SCZ027-030-031-034>040-042>050-280300- ...SOUTHEAST SOUTH CAROLINA... CITY SKY/WX TMP DP RH WIND PRES REMARKS N CHARLESTON MOCLDY 55 48 77 CALM 30.26S WATERFRONT PRK N/A 57 N/A N/A N3 N/A MOUNT PLEASANT FAIR 52 50 93 CALM 30.26F PINOPOLIS N/A 59 52 77 S6 30.18R MONCKS CORNER FAIR 52 48 87 CALM 30.25F SUMMERVILLE FAIR 52 52 100 CALM 30.26S BEAUFORT MCAS CLEAR 53 48 83 CALM 30.26S BEAUFORT ARPT FAIR 52 50 93 CALM 30.26R HILTON HEAD IS CLEAR 52 50 93 N3 30.26F WALTERBORO PTCLDY 54 N/A N/A CALM 30.26S ALLENDALE FAIR 54 52 94 CALM 30.25S ...SOUTHERN MIDLANDS AND PEE DEE... CITY SKY/WX TMP DP RH WIND PRES REMARKS GEORGETOWN NOT AVBL KINGSTREE NOT AVBL ORANGEBURG PTCLDY 51 47 86 CALM 30.25F BARNWELL N/A 52 50 93 CALM 30.25F AIKEN FAIR 52 45 76 CALM 30.27S MANNING FAIR 50 N/A N/A CALM 30.26S COLUMBIA MOCLDY 50 43 77 CALM 30.24S SUMTER MOCLDY 48 45 88 S3 30.22F FLORENCE CLEAR 48 44 86 S5 30.24F MYRTLE BEACH CLEAR 50 45 81 CALM 30.28S N MYRTLE BEACH MOCLDY 49 46 90 CALM 30.25F $$ GAZ063-065-086>088-099>101-113>116-118-119-134>141-150-280300- ...SOUTHEAST GEORGIA... CITY SKY/WX TMP DP RH WIND PRES REMARKS SAVANNAH ARPT CLEAR 54 48 80 CALM 30.26R HUNTER AAF CLEAR 52 49 90 NE2 30.23F FORT STEWART CLEAR 53 51 93 CALM 30.25R STATESBORO CLOUDY 55 55 100 CALM 30.26S SYLVANIA PTCLDY 53 53 100 CALM 30.27S CLAXTON MOCLDY 54 54 100 CALM 30.26S ...CSRA...CENTRAL AND FAR SOUTHEAST GEORGIA... CITY SKY/WX TMP DP RH WIND PRES REMARKS THOMSON CLOUDY 54 51 90 CALM 30.27F AUGUSTA-BUSH CLOUDY 51 47 86 CALM 30.24F AUGUSTA-DANIEL CLOUDY 60 44 55 CALM 30.24F SWAINSBORO LGT RAIN 59 59 100 SE3 30.24F VIDALIA CLOUDY 59 55 88 CALM 30.26S EASTMAN CLOUDY 58 58 100 CALM 30.25S HAZLEHURST MOCLDY 63 60 88 E3 30.23F ALMA MOCLDY 60 56 86 CALM 30.25R WAYCROSS PTCLDY 62 60 92 E3 30.24F JESUP FAIR 55 54 94 CALM 30.25F BAXLEY MOCLDY 63 55 77 E3 30.24F BRUNSWICK CLEAR 55 54 94 CALM 30.25S SAINT SIMONS CLEAR 59 56 89 NE9 30.23F $$ SCZ027-028-034-036>038-045-046-048>050-GAZ119-141-280300- ...LAKE AND SUPPLEMENTAL COASTAL OBSERVATIONS... STATION/POSITION TIME TEMP WIND PRES WAVE SWELL AIR SEA DIR/SP/G HT/PER HT/PER/DIR (UTC) (F) (DEG/KT/KT) (MB) (FT/S) (FT/S/D) UPR LAKE MARION NOT AVBL WINYAH BAY 0200 51 320/ 2 1024.0S LAKE MURRAY 0100 51 CALM 1023.4S ACE BASIN NERRS 0200 51 CALM 1024.0S FORT PULASKI 0200 56 56 20/ 3/ 3 1024.7S SAPELO ISLAND 0200 54 30/ 4 1024.0S $$ ANZ835-935-AMZ111-154-330-350-352-354-370-450-454-472-280300- ...C-MAN AND BUOY OBSERVATIONS... STATION/POSITION TIME TEMP WIND PRES WAVE SWELL AIR SEA DIR/SP/G HT/PER HT/PER/DIR (UTC) (F) (DEG/KT/KT) (MB) (FT/S) (FT/S/D) BUOY 41004 0200 71 74 100/ 8/ 10 1023.9R 2/ 8 2/ 8 BUOY 41008 0200 60 59 20/ 6/ 8 1023.9F 2/16 2/ 90/16 FOLLY BEACH CMAN 0200 56 30/ 4/ 4 1025.1S CAPERS NEARSHORE 0100 56 20/ 4/ 6 N/A FRIPP NEARSHORE NOT AVBL STATION/POSITION TIME TEMP WIND PRES WAVE SWELL AIR SEA DIR/SP/G HT/PER HT/PER/DIR (UTC) (F) (DEG/KT/KT) (MB) (FT/S) (FT/S/D) 5E ST. MARYS GA 0200 60 N/A 2/17 2/ 80/17 FRYING PAN BUOY 0200 65 69 80/ 8/ 10 1025.0F 4/16 3/120/16 BUOY 41025 0200 65 1024.3F 4/15 CAPE LOOKOUT NC 0200 57 170/ 6/ 6 1024.4F BUOY 41002 0125 69 74 130/ 8/ 12 1025.8R 5/15 5/ 70/15 BUOY 41010 0200 75 77 110/ 10/ 14 1023.1R 4/17 3/ 60/17 ST AUGUSTINE FL 0200 63 350/ 9/ 10 1023.8R $$

USA.gov is the U.S. government's official web portal to all federal, state and local government web resources and services.